Simultaneous Nadir Overpasses (SNOs) Predictions

Prediction of SNOs between GOES-15 and FY3D Satellite Orbit:

Table of predicted SNOs for the next 14.0 days since TLE Epoch: 12/31/2022
Index Date Time (GOES-15) GOES-15 Lat,Lon FY3D Lat,Lon Distance(km) Time Diff (sec)
1 12/31/2022 10:34:54 -0.01,-127.75 0.40,-129.58 207.76 80
2 01/01/2023 10:19:15 -0.01,-127.79 -0.59,-125.14 301.91 80
3 01/02/2023 22:41:50 0.01,-127.76 -0.62,-130.58 320.91 80
4 01/03/2023 22:20:51 0.00,-127.79 0.38,-126.14 188.22 80
5 01/05/2023 10:43:17 -0.01,-127.90 0.80,-131.55 415.67 80
6 01/06/2023 10:27:37 0.00,-127.93 -0.20,-127.11 93.39 80
7 01/08/2023 22:31:52 -0.00,-127.92 -0.06,-128.11 21.13 80
8 01/09/2023 22:10:53 -0.01,-127.94 0.95,-123.67 487.39 80
9 01/11/2023 10:33:19 0.00,-128.05 0.23,-129.08 117.47 80
10 01/12/2023 10:17:40 0.01,-128.07 -0.78,-124.64 391.13 80
11 01/13/2023 22:40:14 -0.00,-128.04 -0.46,-130.07 232.16 80
